Flag for U.S.A. Weather past 2 weeks in Fort Bragg, California, U.S.A.

Now
41 °F

Clear.


Feels Like: 41 °F
Forecast: 49 / 58 °F
Wind: No wind

Location: Ukiah Municipal

Current Time: Feb 1, 2015 at 12:12:55 AM

Latest Report: Jan 31, 2015 at 11:56 PM


Visibility: 10 mi

Pressure: 30.07 "Hg

Humidity: 86%

Dew point: 37 °F

Location of Fort BraggLocation

Historic Weather in Fort Bragg — Graph

°F

Fort Bragg temperature yesterday

Maximum temperature yesterday: 74 °F (at 2:56 PM)
Minimum temperature yesterday: 36 °F (at 7:56 AM)
Average temperature yesterday: 51 °F

Past Weeks' High & Low Weather Summary

 TemperatureHumidityPressure
High76 °F (Jan 24, 2:56 PM)97% (Jan 17, 7:56 AM)30.40 "Hg (Jan 17, 7:56 AM)
Low33 °F (Jan 21, 6:56 AM)19% (Jan 31, 2:56 PM)29.89 "Hg (Jan 30, 2:56 PM)
Average51 °F78%30.16 "Hg
* Reported Jan 16 10:56 PM — Jan 31 10:56 PM, Fort Bragg, Weather by CustomWeather, © 2014

Note: Actual official high and low records may vary slightly from our data, if they occured in-between our weather recording intervals... More about our weather records

Advertising

Fort Bragg weather history for previous 24 hours

 ConditionsComfort  
Time TempWeatherWind HumidityBarometerVisibility
10:56 PM
Jan 31
47 °FClear.No wind74%30.06 "Hg10 mi
9:56 PM47 °FClear.No wind77%30.05 "Hg10 mi
8:56 PM49 °FClear.No wind71%30.03 "Hg10 mi
7:56 PM52 °FClear.No wind64%30.02 "Hg10 mi
6:56 PM55 °FClear.No wind57%30.01 "Hg10 mi
5:56 PM57 °FClear.No wind51%29.99 "Hg10 mi
4:56 PM63 °FSunny.3 mph40%29.97 "Hg10 mi
3:56 PM69 °FSunny.7 mph31%29.96 "Hg10 mi
2:56 PM74 °FSunny.No wind19%29.96 "Hg10 mi
1:56 PM72 °FSunny.No wind28%29.97 "Hg10 mi
12:56 PM67 °FSunny.No wind35%30.00 "Hg10 mi
11:56 AM62 °FSunny.No wind41%30.01 "Hg10 mi
10:56 AM54 °FSunny.No wind57%30.04 "Hg10 mi
9:56 AM50 °FSunny.No wind61%30.03 "Hg10 mi
8:56 AM43 °FSunny.3 mph79%30.03 "Hg10 mi
7:56 AM36 °FSunny.No wind92%30.02 "Hg10 mi
6:56 AM37 °FClear.No wind86%30.01 "Hg10 mi
5:56 AM37 °FClear.3 mph89%30.01 "Hg10 mi
4:56 AM37 °FClear.No wind93%29.99 "Hg10 mi
3:56 AM37 °FClear.No wind93%29.98 "Hg9 mi
2:56 AM41 °FClear.No wind89%29.97 "Hg10 mi
1:56 AM41 °FClear.No wind89%29.97 "Hg10 mi
12:56 AM41 °FClear.No wind89%29.97 "Hg10 mi
Weather by CustomWeather, © 2014

See weather overviewHow to use our weather pages